, FL

(GMT )
Whiting Fld NAS

Weather History for KNSE - January, 2013

Change the Weather History Date:

Thursday, January 3, 2013

  Actual Average Record
Temperature  
Mean Temperature 42 °F -  
Max Temperature 46 °F 59 °F 75 °F (2000)
Min Temperature 37 °F 41 °F 19 °F (2008)
Degree Days  
Heating Degree Days 24    
Moisture  
Dew Point 38 °F    
Average Humidity 77    
Maximum Humidity 86    
Minimum Humidity 66    
Precipitation  
Precipitation 0.00 in - - ()
Sea Level Pressure  
Sea Level Pressure 30.22 in    
Wind  
Wind Speed 6 mph (North)    
Max Wind Speed 13 mph    
Max Gust Speed 21 mph    
Visibility 7 miles    
Events Rain    
Averages and records for this station are not official NWS values.
T = Trace of Precipitation, MM = Missing Value Source: NWS Daily Summary

Daily Weather History Graph

Daily Weather History Graph

Search for Another Location

Airport or City:

Trip Planner

Search our weather history database for the weather conditions in past years. The results will help you decide how hot, cold, wet, or windy it might be!

Date:

Astronomy

Jan. 03, 2013 Rise Set
Actual Time 6:46 AM CST 4:59 PM CST
Civil Twilight 6:19 AM CST 5:26 PM CST
Nautical Twilight 5:49 AM CST 5:55 PM CST
Astronomical Twilight 5:20 AM CST 6:25 PM CST
Moon 11:05 PM CST (1/3) 10:23 AM CST (1/3)
Length of Visible Light 11h 06m
Length of Day
10h 13m
Waning Gibbous, 65% of the Moon is Illuminated
Jan 3
Waning Gibbous
Jan 4
Last Quarter
Jan 11
New
Jan 18
First Quarter
Jan 26
Full

Hourly Weather History & Observations

Time (CST) Temp. Windchill Dew Point Humidity Pressure Visibility Wind Dir Wind Speed Gust Speed Precip Events Conditions
12:18 AM 46.4 °F 44.3 °F 41.0 °F 81% 30.18 in 5.0 mi NNW 4.6 mph - 0.00 in Rain Light Rain
12:56 AM 46.0 °F 42.5 °F 39.9 °F 79% 30.15 in 4.0 mi NNW 6.9 mph - 0.00 in Rain Light Rain
1:09 AM 46.4 °F 44.3 °F 39.2 °F 76% 30.19 in 5.0 mi NNW 4.6 mph - 0.00 in Rain Light Rain
1:24 AM 46.4 °F 42.9 °F 39.2 °F 76% 30.19 in 4.0 mi NNW 6.9 mph - 0.00 in Rain Light Rain
1:56 AM 46.0 °F 43.1 °F 39.9 °F 79% 30.15 in 6.0 mi North 5.8 mph - 0.00 in Rain Light Rain
2:56 AM 46.0 °F 44.8 °F 39.9 °F 79% 30.15 in 5.0 mi NNW 3.5 mph - 0.00 in Rain Light Rain
3:40 AM 44.6 °F 40.7 °F 39.2 °F 81% 30.18 in 6.0 mi North 6.9 mph - 0.00 in Rain Light Rain
3:56 AM 45.0 °F 40.6 °F 39.0 °F 80% 30.14 in 5.0 mi North 8.1 mph - 0.00 in Rain Light Rain
4:54 AM 44.6 °F 40.2 °F 39.2 °F 81% 30.20 in 6.0 mi North 8.1 mph - 0.00 in Rain Light Rain
4:56 AM 45.0 °F 41.2 °F 39.0 °F 80% 30.16 in 6.0 mi North 6.9 mph - 0.00 in Rain Light Rain
5:56 AM 44.1 °F 41.5 °F 37.9 °F 79% 30.17 in 5.0 mi North 4.6 mph - 0.00 in Rain Light Rain
6:56 AM 44.1 °F 40.8 °F 39.0 °F 82% 30.19 in 5.0 mi North 5.8 mph - 0.00 in Rain Light Rain
7:36 AM 44.6 °F 40.7 °F 39.2 °F 81% 30.24 in 5.0 mi North 6.9 mph - 0.00 in Rain Light Rain
7:56 AM 44.1 °F 40.8 °F 39.0 °F 82% 30.21 in 5.0 mi North 5.8 mph - 0.00 in Rain Light Rain
8:56 AM 44.1 °F 39.0 °F 39.9 °F 85% 30.23 in 6.0 mi North 9.2 mph - 0.00 in Rain Light Rain
9:56 AM 45.0 °F 41.2 °F 41.0 °F 86% 30.23 in 10.0 mi Variable 6.9 mph - 0.00 in   Overcast
10:38 AM 46.4 °F 40.7 °F 41.0 °F 81% 30.27 in 10.0 mi North 12.7 mph 20.7 mph N/A   Overcast
10:56 AM 45.0 °F 41.8 °F 41.0 °F 86% 30.22 in 8.0 mi North 5.8 mph - N/A   Overcast
11:56 AM 46.0 °F 40.6 °F 42.1 °F 86% 30.20 in 8.0 mi North 11.5 mph - N/A   Overcast
12:56 PM 46.0 °F 41.0 °F 41.0 °F 83% 30.19 in 8.0 mi North 10.4 mph - N/A   Overcast
1:56 PM 46.9 °F - 41.0 °F 80% 30.19 in 8.0 mi NNW 12.7 mph - N/A   Overcast
2:56 PM 46.9 °F - 37.0 °F 68% 30.20 in 9.0 mi North 10.4 mph 16.1 mph N/A   Overcast
3:56 PM 46.9 °F - 36.0 °F 66% 30.23 in 10.0 mi North 4.6 mph - N/A   Mostly Cloudy
4:56 PM 45.0 °F 42.6 °F 35.1 °F 68% 30.23 in 10.0 mi Variable 4.6 mph - N/A   Scattered Clouds
5:56 PM 43.0 °F 40.3 °F 35.1 °F 74% 30.26 in 10.0 mi North 4.6 mph - N/A   Scattered Clouds
6:56 PM 42.1 °F 39.2 °F 34.0 °F 73% 30.27 in 10.0 mi North 4.6 mph - N/A   Clear
7:56 PM 42.1 °F 38.4 °F 32.0 °F 67% 30.29 in 10.0 mi North 5.8 mph - N/A   Clear
8:56 PM 39.9 °F 36.7 °F 30.9 °F 70% 30.31 in 10.0 mi North 4.6 mph - N/A   Clear
9:56 PM 39.0 °F 35.7 °F 28.9 °F 67% 30.31 in 10.0 mi North 4.6 mph - N/A   Clear
10:56 PM 37.9 °F 33.5 °F 28.0 °F 68% 30.30 in 10.0 mi North 5.8 mph - N/A   Clear
11:56 PM 37.9 °F 32.7 °F 28.0 °F 68% 30.30 in 10.0 mi North 6.9 mph - N/A   Clear